Location: Boissi�res
(45.2500°N, 2.3667°E)
Time: 00:10:08
(UTC+00:00)

Cosmos 1933 Rocket - Pass Details

Date: 03 March 2021
Orbit: 607 x 630 km, 82.5° (Epoch: 18 April)

Event Time Altitude Azimuth Distance (km) Brightness Sun altitude
Rises 18:55:33 0° 183° (S) 2,857 7.0 -14.0°
Reaches altitude 10° 18:57:45 10° 181° (S) 1,960 6.1 -14.4°
Maximum altitude 19:02:04 76° 96° (E) 639 3.4 -15.1°
Drops below altitude 10° 19:06:28 10° 12° (NNE) 1,990 6.1 -15.9°
Sets 19:08:43 0° 11° (N) 2,904 7.0 -16.3°
